Regional Weather Roundup
Issued by NWS Green Bay, WI

Home | Current Version | Previous Version | Text Only | Print | Product List | Glossary On
Versions: 1 2 3 4 5 6 7 8 9 10 11 12 13 14 15 16 17 18 19 20 21 22 23 24 25 26 27 28 29 30 31 32 33 34 35 36 37 38 39 40 41 42 43 44 45 46 47 48 49 50
435
ASUS43 KGRB 201811
RWRGRB

NORTH-CENTRAL AND NORTHEAST WISCONSIN REGIONAL WEATHER ROUNDUP
NATIONAL WEATHER SERVICE GREEN BAY WI
1200 PM CST TUE FEB 20 2018

WIZ005-009-010>012-018-019-201900-
NORTH CENTRAL WISCONSIN

CITY           SKY/WX    TMP DP  RH WIND       PRES   REMARKS
IRONWOOD       CLOUDY    23  20  88 W5        29.79S FOG
MANITOWISH WTR CLOUDY    22  22 100 W3        29.75F FOG
ARBOR VITAE    CLOUDY    25  24  95 SW7       29.76S FOG
EAGLE RIVER    MIX PCPN  26  26 100 W6        29.75S
LAND O LAKES   LGT SNOW  26  26  97 SW5       29.76S
RHINELANDER    FOG       27  27 100 W10       29.75S VSB 1
PHILLIPS       CLOUDY    22  22 100 SW3       29.78F FOG
ANTIGO         FOG       30  30 100 W8        29.76S VSB 1/2
TOMAHAWK       CLOUDY    27  26  95 W3        29.77F FOG
MERRILL        CLOUDY    30  30 100 W10       29.79S FOG
$$

WIZ013-073-201900-
NORTHEAST WISCONSIN

CITY           SKY/WX    TMP DP  RH WIND       PRES   REMARKS
IRON MOUNTAIN  CLOUDY    28  27  96 VRB3      29.75R FOG
MARINETTE      CLOUDY    33  31  92 SW3       29.80S FOG
OCONTO         CLOUDY    32  31  97 SW3       29.80F
$$

WIZ017-030-035>037-045-201900-
CENTRAL WISCONSIN

CITY           SKY/WX    TMP DP  RH WIND       PRES   REMARKS
MEDFORD        CLOUDY    25  24  96 SW8       29.80R FOG
WAUSAU         CLOUDY    31  30  96 W8        29.78R
MOSINEE        CLOUDY    30  30 100 W5        29.80
MARSHFIELD     CLOUDY    30  28  92 W14       29.81R
WISC RAPIDS    CLOUDY    32  30  92 W9        29.85R
STEVENS POINT  CLOUDY    31  31 100 W9        29.82R
WAUPACA        CLOUDY    35  33  93 CALM      29.81S FOG
SHAWANO        CLOUDY    34  32  93 CALM      29.80S FOG
CLINTONVILLE   CLOUDY    32  32  98 SW6       29.82S
WAUTOMA        CLOUDY    33  32  96 SW6       29.83S
$$

WIZ038-039-048-051-201900-
FOX VALLEY

CITY           SKY/WX    TMP DP  RH WIND       PRES   REMARKS
NWS GREEN BAY  LGT RAIN  34  32  92 SW7       29.81S FOG
APPLETON       CLOUDY    34  34 100 SW5       29.80R FOG
OSHKOSH        LGT RAIN  34  34 100 S5        29.79F FOG
FOND DU LAC    RAIN      38  37  97 CALM      29.78F FOG
$$

WIZ022-050-052-201900-
EAST CENTRAL WISCONSIN

CITY           SKY/WX    TMP DP  RH WIND       PRES   REMARKS
EPHRAIM        CLOUDY    31  31  99 CALM      29.78R FOG
WASHINGTON ISL FOG       30  30  99 W5        29.79R VSB 1/2
STURGEON BAY   CLOUDY    33  32  96 W3        29.80S FOG
MANITOWOC      LGT RAIN  39  39 100 SW6       29.82R FOG
SHEBOYGAN      HVY RAIN  40  40 100 S8        29.82R FOG
$$

LMZ563-521-522-541>543-201900-
LAKESHORE

STATION/POSITION TIME  TEMP    WIND        PRES    VSBY  WAVE
                       AIR SEA DIR/SP/G                  HT/PER
                 (UTC) (F)     (DEG/KT/KT) (MB)    (MI)  (FT/S)
SHEBOYGAN LKSHOR 1800   40     220/  9/ 11 1010.1R
KEWAUNEE LKSHORE 1748   36     180/  5/  6 1008.5F
NORTHPORT PIER   1740   30                 1009.1R
SISTER BAY LKSHO 1720   31        CALM       N/A
MENOMINEE LKSHOR 1748   31     160/  6/  7 1008.9R
$$




USA.gov is the U.S. government's official web portal to all federal, state and local government web resources and services.